Muncie, IN

11:26 PM EDT on September 22, 2017 (GMT -0400)
Delaware County-Johnson

Weather History for KMIE - May, 2013

Change the Weather History Date:

Thursday, May 9, 2013

  Actual Average Record
Temperature  
Mean Temperature 69 °F 60 °F  
Max Temperature 81 °F 70 °F 87 °F (1963)
Min Temperature 57 °F 49 °F 33 °F (1966)
Degree Days  
Heating Degree Days 0 7  
Month to date heating degree days 7 70  
Since 1 July heating degree days 5290 5662  
Cooling Degree Days 4 1  
Month to date cooling degree days 22 9  
Year to date cooling degree days 35 24  
Growing Degree Days 18 (Base 50)    
Moisture  
Dew Point 55 °F    
Average Humidity 58    
Maximum Humidity 86    
Minimum Humidity 30    
Precipitation  
Precipitation 0.44 in 0.13 in 0.82 in (1989)
Month to date precipitation 0.58 1.12  
Year to date precipitation 13.25 12.28  
Sea Level Pressure  
Sea Level Pressure 29.96 in    
Wind  
Wind Speed 7 mph (SW)    
Max Wind Speed 25 mph    
Max Gust Speed 36 mph    
Visibility 9 miles    
Events Rain , Thunderstorm    
T = Trace of Precipitation, MM = Missing Value Source: NWS Daily Summary

Daily Weather History Graph

Daily Weather History Graph

Search for Another Location

Airport or City:

Trip Planner

Search our weather history database for the weather conditions in past years. The results will help you decide how hot, cold, wet, or windy it might be!

Date:

Astronomy

May. 09, 2013 Rise Set
Actual Time 6:31 AM EDT 8:45 PM EDT
Civil Twilight 6:01 AM EDT 9:15 PM EDT
Nautical Twilight 5:24 AM EDT 9:52 PM EDT
Astronomical Twilight 4:43 AM EDT 10:33 PM EDT
Moon 6:15 AM EDT (5/9) 8:39 PM EDT (5/9)
Length of Visible Light 15h 14m
Length of Day
14h 13m
Waning Crescent, 0% of the Moon is Illuminated
May 9
Waning Crescent
May 9
New
May 18
First Quarter
May 25
Full
May 31
Last Quarter

Hourly Weather History & Observations

Time (EDT) Temp. Dew Point Humidity Pressure Visibility Wind Dir Wind Speed Gust Speed Precip Events Conditions
12:53 AM 63.0 °F 55.0 °F 75% 29.98 in 10.0 mi Calm Calm - N/A   Scattered Clouds
1:53 AM 61.0 °F 54.0 °F 78% 29.96 in 10.0 mi SSW 3.5 mph - N/A   Clear
2:53 AM 57.9 °F 54.0 °F 87% 29.95 in 10.0 mi SW 3.5 mph - N/A   Clear
3:53 AM 59.0 °F 53.1 °F 81% 29.94 in 10.0 mi SW 5.8 mph - N/A   Clear
4:53 AM 59.0 °F 52.0 °F 78% 29.95 in 10.0 mi SW 4.6 mph - N/A   Clear
5:53 AM 59.0 °F 51.1 °F 75% 29.96 in 10.0 mi SW 4.6 mph - N/A   Clear
6:53 AM 57.9 °F 51.1 °F 78% 29.97 in 10.0 mi Calm Calm - N/A   Clear
8:53 AM 64.0 °F 55.0 °F 73% 29.99 in 10.0 mi WSW 6.9 mph - N/A   Clear
9:53 AM 70.0 °F 55.9 °F 61% 29.98 in 10.0 mi WSW 6.9 mph - N/A   Clear
10:53 AM 73.0 °F 55.0 °F 53% 29.99 in 10.0 mi West 8.1 mph - N/A   Clear
11:53 AM 77.0 °F 54.0 °F 45% 29.99 in 10.0 mi West 10.4 mph - N/A   Clear
1:53 PM 80.1 °F 46.9 °F 31% 29.97 in 10.0 mi West 8.1 mph - N/A   Clear
2:53 PM 80.1 °F 46.9 °F 31% 29.96 in 10.0 mi WSW 11.5 mph - N/A   Mostly Cloudy
4:02 PM 75.2 °F 55.4 °F 50% 29.97 in 10.0 mi West 16.1 mph 23.0 mph N/A   Partly Cloudy
4:53 PM 75.9 °F 55.0 °F 48% 29.93 in 10.0 mi West 9.2 mph - N/A   Partly Cloudy
5:53 PM 73.9 °F 54.0 °F 50% 29.94 in 10.0 mi West 4.6 mph - N/A   Mostly Cloudy
6:53 PM 64.0 °F 57.0 °F 78% 29.99 in 2.0 mi WSW 23.0 mph 35.7 mph 0.05 in Rain Rain
7:03 PM 64.4 °F 57.2 °F 77% 29.99 in 10.0 mi WSW 10.4 mph 28.8 mph 0.00 in   Overcast
7:53 PM 64.0 °F 57.9 °F 80% 29.94 in 9.0 mi South 4.6 mph - 0.01 in Rain Light Rain
8:53 PM 63.0 °F 57.9 °F 84% 29.93 in 10.0 mi Calm Calm - 0.01 in   Mostly Cloudy
9:53 PM 63.0 °F 57.9 °F 84% 29.92 in 10.0 mi South 4.6 mph - N/A   Overcast
10:53 PM 63.0 °F 57.9 °F 84% 29.92 in 7.0 mi Calm Calm - 0.03 in Rain Light Rain
11:11 PM 62.6 °F 57.2 °F 82% 29.94 in 3.0 mi SSW 3.5 mph - 0.05 in Rain , Thunderstorm Rain
11:26 PM 62.6 °F 57.2 °F 82% 29.93 in 3.0 mi SSE 5.8 mph - 0.11 in Rain Rain
11:53 PM 62.1 °F 57.9 °F 86% 29.90 in 5.0 mi South 6.9 mph - 0.18 in Rain Rain